Temperature
29 30 31 31 31 31 31 31 30 30 30 30 30 29 29 28 27 27 26 26 25 24 23 22 21 21 21 20 20 20 20 20 20 19 19 19 19 19 19 18 18 18 18 18
30 30 31 31 31 31 31 31 31 30 30 30 29 29 29 28 28 27 26 26 25 24 23 22 21 21 21 20 20 20 20 20 20 19 19 19 19 19 19 19 18 18 18 18
30 31 31 31 31 30 31 31 31 30 30 30 30 29 29 29 27 27 26 26 25 24 23 22 22 21 21 20 20 20 20 20 20 19 19 19 19 19 19 19 18 18 18 18
30 31 30 30 30 31 30 31 31 30 30 30 30 30 29 29 28 27 26 26 25 25 24 23 22 21 21 20 20 20 20 20 20 20 19 19 19 19 19 19 18 18 18 18
30 30 30 30 30 31 31 31 30 30 30 30 30 30 30 29 28 28 27 26 25 24 24 23 22 21 21 20 20 20 20 20 20 20 19 19 19 18 18 18 18 18 18 18
31 31 31 31 31 31 30 30 30 30 30 29 30 30 30 30 29 28 27 26 25 24 23 23 22 21 21 20 20 20 20 20 20 19 19 19 18 18 18 18 18 18 18 18
30 30 31 31 30 30 30 30 29 29 29 30 30 30 30 29 29 28 27 26 24 24 23 22 22 21 21 20 20 20 20 20 20 19 19 19 18 18 18 18 18 18 18 18
29 30 31 31 31 30 30 31 29 29 29 30 30 30 30 29 28 27 26 26 24 24 23 22 21 21 20 20 20 19 19 19 19 19 19 18 18 18 18 18 18 17 18 17
30 30 31 31 31 31 31 31 31 30 30 30 30 30 29 28 28 27 26 25 24 24 23 22 21 21 20 20 19 19 19 19 19 19 18 18 18 18 18 18 17 17 17 17
31 30 31 31 30 30 31 31 30 30 28 29 30 30 30 29 28 28 27 25 24 23 23 22 21 21 20 20 19 19 19 19 19 18 18 18 18 18 18 17 17 17 17 17
31 30 30 30 30 30 30 30 30 30 30 29 29 30 30 29 28 28 27 25 24 23 23 22 21 20 20 20 19 18 18 18 18 18 18 18 18 17 17 17 17 17 17 16
30 30 30 30 30 30 31 31 30 29 29 29 30 30 29 29 29 27 26 25 23 23 22 21 21 20 20 19 19 18 18 18 18 18 18 18 17 17 17 17 17 17 16 16
29 29 28 29 30 30 30 30 31 31 30 29 29 30 28 28 28 27 26 24 23 22 21 21 20 20 19 19 18 18 18 18 18 18 17 17 17 17 17 17 17 16 16 16
28 29 29 29 30 30 30 30 30 30 30 29 30 30 29 28 27 26 25 23 22 21 21 21 20 19 19 19 18 18 18 18 18 17 17 17 16 16 16 16 16 16 16 16
28 29 29 29 30 30 30 30 29 29 30 30 30 29 29 28 27 25 24 23 22 21 21 20 20 19 19 18 18 18 18 17 17 17 16 16 16 16 16 16 16 16 16 16
27 28 28 28 29 29 29 29 29 29 29 29 29 29 29 27 26 24 23 23 22 21 20 20 19 19 18 18 18 17 17 17 17 16 16 16 16 16 16 15 15 15 15 15
27 27 27 28 29 28 28 29 29 29 29 29 29 29 27 26 25 24 23 22 22 21 20 19 19 18 18 18 17 17 17 17 16 16 16 16 16 15 15 15 15 15 15 15
26 26 27 28 27 26 28 28 28 28 28 28 28 27 27 26 24 23 22 21 21 20 20 19 19 18 18 17 17 17 17 16 16 16 16 16 15 15 15 15 15 15 14 14
25 25 26 27 27 27 27 27 27 27 27 27 27 26 25 24 24 23 21 20 20 20 19 19 18 18 17 17 17 17 16 16 16 16 15 15 15 15 15 15 15 14 14 14
24 25 26 26 26 26 27 27 26 26 26 26 25 25 24 24 25 24 21 20 19 19 18 18 18 17 17 17 16 16 16 16 15 15 15 15 15 15 14 14 14 14 14 14
24 24 25 25 26 27 26 25 25 25 25 24 24 24 23 23 24 21 20 19 19 18 18 17 17 17 16 16 16 16 16 16 15 15 15 15 15 14 14 14 14 14 14 13
25 25 25 25 25 26 24 25 25 23 22 22 22 22 22 21 20 20 19 18 18 17 17 17 17 16 16 16 16 16 15 15 15 15 14 14 14 14 14 14 14 13 13 13
24 24 25 25 24 23 22 23 21 21 21 21 21 21 20 20 19 19 18 17 17 17 16 16 16 16 16 16 15 15 15 15 15 15 14 14 14 14 13 13 13 13 13 13
23 21 23 23 23 22 21 21 20 20 20 20 20 19 19 19 19 18 17 17 16 16 16 16 16 15 15 15 15 15 15 15 14 14 14 14 13 13 13 13 13 13 13 12
22 22 22 22 22 21 21 20 20 19 19 19 19 19 19 18 18 17 16 16 16 16 15 15 15 15 15 15 15 14 14 14 14 13 13 13 13 13 13 12 12 12 12 12
22 22 22 22 21 21 20 19 19 18 18 18 18 18 17 17 17 16 16 15 15 15 15 15 15 14 14 14 14 14 14 14 13 13 13 13 13 12 12 12 12 12 12 12
Wind_Speed
7 9 8 6 5 5 4 4 3 1 0 2 2 2 3 5 6 5 5 6 6 6 6 5 5 4 4 4 4 3 2 3 2 2 1 2 2 2 3 3 4 4 3 3
9 10 7 5 5 6 6 6 4 2 2 3 3 2 2 5 6 5 6 6 6 6 6 6 5 5 5 4 4 3 3 3 3 2 1 1 1 1 2 2 3 3 3 2
11 4 4 6 6 7 8 6 4 3 3 5 5 5 4 5 6 6 5 6 6 7 7 7 6 6 5 5 4 3 3 3 3 3 2 2 2 1 2 2 2 2 2 2
9 5 5 7 7 8 7 4 4 4 6 4 5 4 4 6 6 6 6 6 6 7 7 7 7 6 6 5 4 4 3 3 3 3 2 2 1 1 1 1 2 2 2 2
8 7 8 9 7 7 4 2 4 6 7 6 6 6 2 6 5 6 6 6 6 6 6 7 7 7 6 5 5 4 4 3 3 3 3 2 1 1 1 1 2 1 2 1
8 6 6 6 5 5 4 5 5 7 7 7 5 6 2 3 3 5 6 6 6 6 6 6 7 7 6 6 6 5 5 4 4 4 3 2 1 1 0 0 1 1 1 1
10 9 7 6 7 8 8 8 6 6 6 4 2 5 2 2 1 3 6 7 6 6 6 7 7 7 6 6 5 5 5 5 4 4 3 3 2 2 2 2 1 1 0 1
10 9 9 8 9 7 10 10 7 5 5 3 4 4 1 3 2 3 5 6 7 6 6 7 7 6 6 5 5 5 5 5 5 4 4 3 3 2 2 2 1 1 0 1
8 8 7 7 7 8 8 9 8 7 8 7 3 2 3 4 5 6 6 6 7 7 7 7 7 6 6 5 5 4 4 4 4 4 4 3 2 2 1 1 1 0 0 0
7 7 7 7 7 6 7 6 6 7 6 7 5 5 3 5 5 6 7 7 7 7 7 7 6 6 5 5 4 4 4 4 4 4 4 3 3 2 2 2 1 0 0 1
9 9 8 9 10 9 8 8 7 6 7 8 6 2 2 2 4 6 7 7 7 7 7 7 6 6 5 4 4 4 4 4 4 4 3 3 2 2 2 1 1 1 1 1
8 8 9 9 6 5 9 9 10 8 7 8 9 2 4 2 3 5 6 6 7 7 7 7 7 6 5 4 4 4 4 4 3 3 3 3 2 2 2 1 1 1 1 1
6 7 10 10 9 9 9 10 11 10 8 9 10 4 5 3 3 4 6 7 7 7 7 7 7 6 5 4 4 4 4 3 3 3 2 2 2 2 2 1 1 1 1 1
4 8 11 11 7 8 10 10 11 12 10 10 10 7 3 3 4 5 6 6 7 7 7 7 6 6 5 4 4 4 3 3 3 3 3 2 2 2 2 2 1 1 1 1
5 9 10 9 7 8 10 11 12 13 13 12 9 9 7 4 3 4 5 6 7 7 7 7 6 6 5 4 4 3 3 3 3 3 2 2 2 2 2 2 2 1 1 1
4 7 9 10 9 11 12 11 12 13 13 13 11 9 4 3 3 4 6 7 7 7 7 7 6 6 5 5 4 4 3 3 3 2 2 2 2 2 2 2 2 2 2 1
5 6 9 11 10 11 15 13 13 12 12 12 12 7 3 4 4 4 5 6 7 7 7 7 6 6 5 5 5 5 4 4 3 3 2 3 3 3 3 3 3 2 2 2
7 8 8 10 9 14 7 3 7 10 9 9 8 5 4 4 3 4 5 6 6 6 6 6 6 5 5 5 5 4 4 4 3 3 3 3 3 3 3 3 3 3 3 3
8 8 8 10 13 12 6 4 5 7 8 3 4 4 4 4 4 4 4 4 4 5 5 5 5 5 4 4 5 4 4 4 3 3 3 3 4 4 4 4 4 3 4 4
8 9 9 10 12 12 5 2 2 5 7 1 2 4 5 6 6 3 4 3 3 4 4 4 5 5 4 4 4 4 3 3 3 3 3 3 4 4 4 4 4 4 4 5
9 9 12 12 13 8 1 2 4 7 2 1 2 4 5 4 1 3 4 3 3 3 4 5 4 4 4 4 4 3 3 3 3 3 3 3 3 4 4 4 4 4 5 5
10 9 10 10 12 8 3 3 3 2 3 1 1 2 3 2 2 3 3 3 3 3 4 4 4 4 3 3 4 3 2 2 2 3 3 3 3 3 3 4 4 4 5 5
7 6 5 5 3 3 2 1 1 1 1 1 1 1 2 2 2 2 2 3 3 3 3 3 4 4 3 3 3 2 1 1 2 2 2 3 3 3 4 4 5 5 5 5
4 2 3 4 2 0 0 0 0 1 1 1 0 1 2 2 2 2 2 2 2 2 2 3 4 4 3 2 2 1 1 1 1 2 2 3 3 3 3 4 4 5 5 5
4 4 5 5 3 2 2 1 1 1 1 1 0 1 1 2 3 3 2 1 1 1 1 2 3 3 2 2 2 1 1 0 1 1 2 2 2 2 3 4 4 5 5 5
6 6 6 5 3 3 2 1 2 1 1 1 1 1 1 1 2 3 2 2 1 1 1 1 2 2 1 1 1 1 0 0 1 2 2 2 2 2 3 3 3 2 4 3
Wind_Direction
204 226 230 236 253 283 282 271 281 302 169 233 232 224 189 183 192 189 183 180 181 180 172 172 171 169 160 151 149 145 131 124 128 124 120 101 90 85 84 75 70 73 74 81
213 226 236 246 244 249 247 250 249 223 201 242 247 252 201 188 198 200 195 187 187 181 172 174 177 173 170 165 165 160 153 144 149 133 126 112 80 83 84 79 82 74 77 85
225 222 212 228 228 236 240 255 265 265 216 221 246 223 188 181 194 197 204 201 194 190 183 178 178 178 173 173 175 168 159 153 155 155 156 139 137 143 117 102 97 79 84 90
231 222 215 229 235 241 240 256 258 242 241 241 251 267 179 179 187 193 197 199 197 193 186 178 175 178 176 173 168 164 160 157 158 171 169 168 159 128 84 85 88 89 91 92
216 210 219 231 234 239 254 218 236 243 252 262 241 268 176 171 198 197 195 196 198 194 185 179 176 170 171 167 162 156 155 154 158 168 166 189 181 159 124 96 87 76 80 77
236 219 234 239 228 219 198 198 215 231 244 252 250 263 243 176 210 196 187 185 188 183 178 175 167 163 167 168 169 161 158 156 158 165 167 182 179 186 143 100 112 144 115 97
219 216 212 214 209 193 214 231 232 228 229 244 189 253 275 95 161 193 184 179 172 170 171 170 166 166 169 171 174 167 164 165 164 166 169 179 189 186 194 231 199 246 147 102
216 208 200 208 224 218 221 240 253 268 266 247 193 247 130 122 153 173 173 172 167 165 166 166 165 165 168 171 174 170 169 168 168 172 173 179 191 203 202 226 247 238 275 65
223 210 183 202 220 234 223 233 259 268 272 268 239 219 189 171 178 175 170 167 166 164 162 163 162 159 162 166 165 168 169 170 175 177 175 182 197 219 207 201 231 231 298 176
244 229 195 181 193 216 246 236 233 251 265 265 244 242 229 177 178 174 178 175 166 164 159 156 156 156 161 159 156 161 167 173 178 181 191 183 192 197 197 213 211 331 334 331
236 231 205 196 214 213 202 214 233 250 263 272 271 250 83 165 181 181 179 174 171 169 162 157 154 153 152 153 156 164 165 168 178 187 191 188 189 183 189 196 202 185 219 233
221 234 230 215 208 242 231 233 229 241 246 258 276 269 99 135 177 175 169 163 164 168 164 159 155 155 158 159 163 168 169 172 180 183 188 189 190 189 199 188 202 212 218 222
200 228 226 218 204 205 224 229 239 249 252 252 262 251 119 132 155 162 163 159 160 163 161 159 162 164 167 166 168 170 176 181 188 187 191 191 202 198 205 209 206 214 227 234
235 236 242 248 243 217 222 225 232 242 248 255 257 265 217 195 177 169 165 161 161 163 165 163 165 167 170 174 175 178 182 187 191 196 203 205 215 219 225 231 235 236 237 244
238 238 244 257 261 252 242 235 229 241 256 266 268 264 260 226 201 177 176 169 167 166 169 167 170 171 177 180 182 184 185 188 192 201 211 212 220 219 234 238 232 230 240 240
245 248 245 245 239 243 244 244 239 240 250 255 260 264 254 191 179 174 180 178 177 178 177 175 174 175 184 190 193 192 195 196 195 202 213 215 218 223 228 231 225 226 239 252
227 235 246 249 240 243 242 243 246 246 248 255 260 261 198 194 199 196 188 188 186 182 180 181 185 188 192 196 196 195 194 196 197 203 214 217 221 225 230 234 231 232 237 243
233 243 247 251 242 246 253 260 256 256 255 260 262 250 221 207 194 195 189 183 182 180 180 182 186 187 186 186 188 188 185 190 197 209 221 224 224 228 234 236 235 236 237 240
221 228 245 246 244 244 232 222 235 243 248 256 253 225 199 168 176 183 171 173 178 186 184 180 181 177 171 176 179 182 187 189 202 217 229 234 233 235 236 238 240 241 239 239
200 218 238 242 250 251 242 167 220 245 236 211 223 204 194 192 217 176 150 167 176 175 174 175 173 168 164 166 167 175 182 194 215 230 238 240 240 241 241 240 244 245 241 241
202 215 231 241 247 248 97 137 208 235 266 59 220 208 200 208 288 106 138 157 164 165 163 163 162 162 163 167 171 179 190 209 227 234 240 241 246 247 244 246 248 248 248 250
227 228 228 238 244 241 90 169 225 344 25 27 249 211 192 167 123 117 123 140 152 152 154 157 160 155 155 163 170 173 195 225 228 232 238 248 254 258 252 246 250 250 250 248
236 258 258 253 262 61 91 24 25 359 352 339 304 232 182 176 164 147 142 139 145 146 146 155 156 154 155 160 163 174 199 235 233 238 248 260 267 267 262 249 245 244 241 249
213 237 246 240 237 205 130 27 356 353 347 330 275 201 181 180 171 166 155 148 149 146 150 164 161 155 152 153 156 170 183 243 234 243 256 259 263 266 263 260 253 253 253 255
250 222 232 233 230 227 221 247 318 342 353 18 98 181 181 169 175 173 165 157 160 158 168 174 167 158 155 140 135 141 157 223 256 266 272 270 261 265 270 263 263 260 262 261
235 237 242 245 221 248 240 288 289 273 263 249 170 182 196 179 180 171 159 154 162 159 157 154 159 155 156 142 124 104 110 204 265 270 279 283 280 272 268 273 278 256 259 255
Height
1503 1502 1499 1496 1496 1496 1497 1500 1502 1500 1499 1501 1502 1503 1504 1508 1510 1511 1514 1516 1519 1521 1523 1524 1525 1526 1526 1526 1526 1527 1527 1527 1527 1528 1529 1529 1530 1530 1530 1530 1529 1529 1529 1529
1501 1499 1495 1495 1496 1497 1498 1500 1500 1500 1499 1501 1502 1502 1501 1505 1508 1510 1512 1515 1517 1520 1522 1523 1524 1525 1525 1526 1526 1527 1527 1527 1528 1528 1529 1529 1530 1530 1530 1530 1530 1530 1530 1530
1497 1494 1495 1497 1497 1499 1497 1498 1498 1500 1499 1498 1500 1502 1500 1503 1506 1509 1511 1513 1515 1517 1520 1522 1523 1524 1525 1525 1526 1527 1527 1527 1528 1528 1529 1530 1530 1531 1531 1531 1531 1530 1530 1530
1494 1493 1496 1496 1496 1496 1499 1494 1496 1499 1501 1499 1499 1506 1499 1499 1503 1506 1509 1511 1513 1515 1517 1520 1521 1522 1524 1524 1525 1526 1526 1527 1527 1528 1529 1530 1530 1531 1531 1531 1531 1531 1531 1531
1492 1493 1495 1496 1494 1494 1494 1494 1495 1496 1498 1499 1497 1501 1496 1496 1500 1502 1505 1508 1511 1513 1515 1518 1520 1521 1522 1524 1525 1525 1526 1526 1527 1527 1528 1529 1530 1531 1531 1531 1530 1530 1530 1530
1489 1491 1492 1491 1491 1493 1493 1496 1496 1495 1495 1508 1498 1502 1499 1492 1496 1498 1502 1506 1509 1511 1514 1516 1518 1520 1521 1523 1524 1525 1525 1526 1526 1527 1527 1528 1529 1529 1530 1530 1530 1530 1530 1530
1492 1489 1489 1491 1492 1493 1493 1498 1507 1510 1509 1505 1494 1499 1497 1491 1493 1496 1500 1504 1507 1510 1512 1515 1517 1519 1520 1522 1523 1524 1524 1525 1525 1526 1527 1527 1528 1528 1529 1529 1530 1530 1530 1529
1494 1495 1487 1487 1488 1490 1490 1492 1507 1516 1511 1499 1496 1497 1490 1490 1494 1497 1500 1503 1506 1509 1511 1513 1516 1517 1519 1521 1522 1523 1523 1524 1525 1525 1525 1526 1526 1528 1528 1528 1528 1529 1529 1528
1486 1489 1483 1484 1485 1485 1489 1489 1485 1494 1497 1501 1493 1491 1489 1490 1493 1496 1499 1502 1505 1507 1510 1512 1515 1516 1518 1520 1520 1521 1522 1523 1523 1524 1524 1525 1525 1526 1526 1526 1526 1527 1526 1526
1479 1489 1482 1483 1485 1486 1483 1482 1488 1494 1510 1510 1499 1494 1489 1489 1491 1493 1497 1500 1504 1506 1509 1511 1514 1515 1517 1518 1519 1520 1521 1521 1522 1523 1523 1524 1524 1524 1524 1525 1525 1525 1524 1524
1478 1486 1485 1483 1485 1483 1487 1487 1488 1489 1491 1504 1505 1494 1480 1484 1488 1491 1495 1499 1502 1505 1508 1510 1512 1514 1516 1517 1518 1519 1520 1520 1521 1521 1522 1522 1522 1523 1523 1523 1523 1523 1523 1522
1480 1480 1484 1481 1478 1479 1478 1480 1484 1495 1498 1494 1495 1492 1480 1483 1486 1490 1494 1499 1502 1504 1507 1509 1511 1513 1515 1516 1517 1518 1518 1519 1520 1520 1520 1521 1521 1521 1521 1522 1522 1521 1521 1521
1480 1482 1492 1489 1486 1482 1480 1479 1478 1478 1483 1490 1494 1491 1482 1485 1487 1490 1494 1498 1501 1504 1506 1508 1510 1512 1513 1515 1515 1516 1517 1518 1518 1519 1519 1519 1520 1520 1520 1520 1520 1520 1519 1519
1481 1478 1483 1487 1479 1474 1479 1480 1479 1479 1485 1486 1485 1483 1481 1483 1486 1490 1494 1497 1500 1502 1504 1506 1508 1510 1512 1513 1514 1514 1515 1516 1517 1517 1517 1517 1517 1517 1517 1517 1517 1517 1517 1517
1480 1479 1476 1474 1472 1473 1474 1476 1477 1479 1478 1481 1479 1479 1479 1481 1485 1490 1493 1496 1499 1501 1503 1505 1507 1508 1510 1511 1512 1512 1513 1514 1514 1515 1515 1515 1516 1514 1515 1515 1515 1515 1515 1515
1480 1480 1478 1479 1474 1474 1476 1474 1474 1476 1475 1475 1476 1478 1477 1482 1486 1490 1492 1494 1497 1499 1501 1503 1505 1507 1508 1509 1510 1510 1511 1511 1512 1513 1513 1514 1513 1513 1513 1513 1513 1513 1513 1512
1478 1481 1483 1479 1473 1476 1480 1472 1472 1472 1470 1472 1475 1475 1478 1482 1486 1489 1491 1493 1495 1497 1499 1501 1503 1504 1505 1507 1507 1508 1509 1509 1510 1510 1511 1511 1511 1511 1511 1512 1512 1511 1510 1510
1481 1482 1479 1477 1481 1492 1473 1468 1469 1470 1470 1470 1472 1475 1478 1482 1486 1488 1490 1491 1493 1495 1497 1499 1501 1503 1504 1505 1506 1506 1507 1507 1508 1508 1508 1509 1509 1509 1509 1509 1509 1508 1508 1508
1479 1481 1479 1478 1480 1475 1471 1469 1471 1472 1473 1473 1474 1476 1480 1483 1485 1487 1489 1491 1492 1494 1496 1497 1499 1500 1501 1502 1503 1504 1504 1505 1505 1506 1506 1506 1506 1506 1506 1506 1506 1506 1505 1505
1478 1479 1479 1478 1483 1481 1470 1468 1472 1474 1475 1474 1475 1477 1480 1482 1480 1483 1488 1489 1491 1493 1494 1496 1497 1498 1499 1500 1500 1501 1501 1502 1502 1503 1503 1503 1503 1503 1503 1503 1503 1502 1502 1502
1476 1478 1477 1476 1477 1469 1469 1471 1473 1479 1477 1477 1477 1479 1480 1481 1481 1485 1486 1488 1490 1491 1492 1493 1495 1496 1497 1497 1498 1498 1498 1499 1499 1500 1500 1500 1500 1500 1500 1499 1499 1499 1499 1499
1470 1471 1474 1473 1476 1474 1472 1472 1474 1476 1478 1478 1479 1480 1481 1482 1484 1485 1486 1487 1489 1490 1491 1491 1492 1493 1494 1495 1495 1495 1496 1496 1497 1497 1497 1497 1497 1496 1496 1495 1495 1495 1495 1495
1468 1469 1466 1469 1472 1474 1474 1475 1478 1479 1479 1479 1480 1480 1481 1482 1484 1485 1486 1487 1487 1488 1489 1490 1490 1491 1492 1492 1493 1493 1493 1494 1494 1493 1493 1493 1493 1492 1492 1492 1491 1491 1491 1492
1470 1474 1472 1472 1471 1474 1476 1477 1478 1479 1479 1480 1480 1481 1481 1482 1483 1484 1485 1485 1486 1487 1487 1488 1489 1489 1490 1490 1490 1491 1491 1491 1491 1491 1490 1490 1490 1489 1488 1488 1488 1488 1488 1488
1470 1472 1471 1473 1474 1476 1477 1478 1478 1479 1479 1479 1479 1480 1481 1481 1482 1483 1483 1484 1485 1485 1486 1487 1487 1487 1487 1488 1488 1489 1489 1489 1488 1488 1488 1487 1487 1486 1485 1485 1484 1484 1484 1485
1471 1471 1471 1470 1474 1474 1476 1477 1478 1478 1478 1478 1479 1479 1480 1480 1481 1481 1482 1483 1483 1484 1484 1485 1485 1485 1486 1486 1486 1486 1486 1486 1486 1486 1486 1485 1485 1484 1483 1482 1481 1480 1481 1480